TimeMDT,TemperatureF,Dew PointF,Humidity,Sea Level PressureIn,VisibilityMPH,Wind Direction,Wind SpeedMPH,Gust SpeedMPH,PrecipitationIn,Events,Conditions,WindDirDegrees,DateUTC
12:15 AM,69.8,51.8,53,30.19,10.0,SSE,4.6,-,N/A,,Clear,150,2013-07-02 06:15:00
12:35 AM,64.4,51.8,64,30.19,10.0,Calm,Calm,-,N/A,,Clear,0,2013-07-02 06:35:00
12:55 AM,66.2,51.8,60,30.18,10.0,Calm,Calm,-,N/A,,Clear,0,2013-07-02 06:55:00
1:15 AM,64.4,51.8,64,30.19,10.0,Calm,Calm,-,N/A,,Clear,0,2013-07-02 07:15:00
1:35 AM,62.6,51.8,68,30.18,10.0,Calm,Calm,-,N/A,,Clear,0,2013-07-02 07:35:00
1:55 AM,62.6,51.8,68,30.18,10.0,East,3.5,-,N/A,,Clear,90,2013-07-02 07:55:00
2:15 AM,62.6,51.8,68,30.18,10.0,Calm,Calm,-,N/A,,Clear,0,2013-07-02 08:15:00
2:55 AM,62.6,50.0,63,30.17,10.0,East,3.5,-,N/A,,Clear,80,2013-07-02 08:55:00
3:15 AM,62.6,50.0,63,30.17,10.0,Calm,Calm,-,N/A,,Clear,0,2013-07-02 09:15:00
3:35 AM,59.0,50.0,72,30.17,10.0,ENE,4.6,-,N/A,,Clear,70,2013-07-02 09:35:00
3:55 AM,60.8,50.0,68,30.17,10.0,ENE,4.6,-,N/A,,Clear,70,2013-07-02 09:55:00
4:15 AM,60.8,50.0,68,30.17,10.0,East,5.8,-,N/A,,Clear,80,2013-07-02 10:15:00
4:35 AM,60.8,50.0,68,30.17,10.0,ENE,5.8,-,N/A,,Clear,70,2013-07-02 10:35:00
4:55 AM,60.8,50.0,68,30.17,10.0,ENE,4.6,-,N/A,,Clear,60,2013-07-02 10:55:00
5:15 AM,60.8,50.0,68,30.18,10.0,NE,3.5,-,N/A,,Clear,50,2013-07-02 11:15:00
5:35 AM,57.2,50.0,77,30.18,10.0,NNE,4.6,-,N/A,,Clear,20,2013-07-02 11:35:00
5:55 AM,57.2,51.8,82,30.18,10.0,North,4.6,-,N/A,,Clear,10,2013-07-02 11:55:00
6:15 AM,60.8,51.8,72,30.18,10.0,NNE,4.6,-,N/A,,Clear,20,2013-07-02 12:15:00
6:55 AM,64.4,53.6,68,30.18,10.0,ENE,5.8,-,N/A,,Clear,60,2013-07-02 12:55:00
7:15 AM,64.4,53.6,68,30.18,10.0,ENE,3.5,-,N/A,,Clear,70,2013-07-02 13:15:00
7:35 AM,66.2,53.6,64,30.19,10.0,East,3.5,-,N/A,,Clear,80,2013-07-02 13:35:00
8:15 AM,69.8,51.8,53,30.19,10.0,SE,3.5,-,N/A,,Clear,140,2013-07-02 14:15:00
8:35 AM,71.6,53.6,53,30.18,10.0,South,3.5,-,N/A,,Clear,170,2013-07-02 14:35:00
9:15 AM,73.4,55.4,53,30.18,10.0,SSE,5.8,-,N/A,,Clear,150,2013-07-02 15:15:00
9:35 AM,73.4,53.6,50,30.18,10.0,SE,5.8,-,N/A,,Clear,130,2013-07-02 15:35:00
9:55 AM,75.2,53.6,47,30.17,10.0,East,5.8,-,N/A,,Clear,90,2013-07-02 15:55:00
10:15 AM,77.0,55.4,47,30.17,10.0,Calm,Calm,-,N/A,,Clear,0,2013-07-02 16:15:00
10:35 AM,78.8,55.4,44,30.17,10.0,East,5.8,-,N/A,,Clear,80,2013-07-02 16:35:00
10:55 AM,80.6,55.4,42,30.16,10.0,East,6.9,-,N/A,,Clear,80,2013-07-02 16:55:00
11:15 AM,82.4,55.4,39,30.16,10.0,East,9.2,-,N/A,,Clear,90,2013-07-02 17:15:00
11:35 AM,84.2,55.4,37,30.15,10.0,East,9.2,-,N/A,,Clear,100,2013-07-02 17:35:00
11:55 AM,84.2,55.4,37,30.15,10.0,East,8.1,-,N/A,,Clear,100,2013-07-02 17:55:00
12:35 PM,84.2,55.4,37,30.14,10.0,South,6.9,-,N/A,,Clear,180,2013-07-02 18:35:00
12:55 PM,84.2,53.6,35,30.13,10.0,NE,4.6,-,N/A,,Partly Cloudy,40,2013-07-02 18:55:00
1:15 PM,86.0,55.4,35,30.13,10.0,SE,6.9,-,N/A,,Clear,140,2013-07-02 19:15:00
1:35 PM,84.2,55.4,37,30.13,10.0,East,12.7,-,N/A,,Clear,90,2013-07-02 19:35:00
1:55 PM,86.0,53.6,33,30.12,10.0,ENE,6.9,-,N/A,,Clear,70,2013-07-02 19:55:00
2:15 PM,86.0,53.6,33,30.12,10.0,South,3.5,-,N/A,,Partly Cloudy,180,2013-07-02 20:15:00
2:35 PM,87.8,53.6,31,30.11,10.0,East,11.5,17.3,N/A,,Clear,100,2013-07-02 20:35:00
2:55 PM,86.0,53.6,33,30.11,10.0,NE,4.6,-,N/A,,Clear,40,2013-07-02 20:55:00
3:35 PM,87.8,53.6,31,30.10,10.0,East,11.5,-,N/A,,Clear,90,2013-07-02 21:35:00
3:55 PM,87.8,53.6,31,30.09,10.0,East,15.0,-,N/A,,Clear,100,2013-07-02 21:55:00
4:15 PM,87.8,53.6,31,30.09,10.0,Calm,Calm,-,N/A,,Clear,0,2013-07-02 22:15:00
4:35 PM,86.0,51.8,31,30.08,10.0,NE,8.1,-,N/A,,Clear,50,2013-07-02 22:35:00
4:55 PM,87.8,53.6,31,30.07,10.0,East,5.8,-,N/A,,Clear,100,2013-07-02 22:55:00
5:15 PM,87.8,51.8,29,30.07,10.0,ENE,8.1,-,N/A,,Clear,70,2013-07-02 23:15:00
5:55 PM,86.0,53.6,33,30.07,10.0,East,10.4,16.1,N/A,,Clear,90,2013-07-02 23:55:00
6:15 PM,86.0,53.6,33,30.06,10.0,East,11.5,-,N/A,,Clear,100,2013-07-03 00:15:00
6:35 PM,84.2,53.6,35,30.06,10.0,East,13.8,-,N/A,,Clear,80,2013-07-03 00:35:00
6:55 PM,84.2,51.8,33,30.05,10.0,East,11.5,-,N/A,,Clear,90,2013-07-03 00:55:00
7:35 PM,82.4,53.6,37,30.05,10.0,East,10.4,-,N/A,,Clear,90,2013-07-03 01:35:00
7:55 PM,80.6,53.6,39,30.04,10.0,East,10.4,-,N/A,,Clear,90,2013-07-03 01:55:00
8:15 PM,80.6,53.6,39,30.04,10.0,East,9.2,-,N/A,,Clear,90,2013-07-03 02:15:00
8:35 PM,77.0,53.6,44,30.04,10.0,East,6.9,-,N/A,,Clear,90,2013-07-03 02:35:00
8:55 PM,75.2,53.6,47,30.03,10.0,East,5.8,-,N/A,,Clear,90,2013-07-03 02:55:00
9:15 PM,75.2,53.6,47,30.03,10.0,ESE,8.1,-,N/A,,Clear,110,2013-07-03 03:15:00
9:35 PM,73.4,53.6,50,30.03,10.0,East,5.8,-,N/A,,Clear,90,2013-07-03 03:35:00
9:55 PM,73.4,53.6,50,30.03,10.0,ESE,8.1,-,N/A,,Clear,120,2013-07-03 03:55:00
10:35 PM,75.2,55.4,50,30.03,10.0,SE,10.4,-,N/A,,Clear,130,2013-07-03 04:35:00
10:55 PM,73.4,55.4,53,30.03,10.0,SE,9.2,-,N/A,,Clear,140,2013-07-03 04:55:00
11:15 PM,71.6,53.6,53,30.02,10.0,SE,8.1,-,N/A,,Clear,140,2013-07-03 05:15:00
11:35 PM,71.6,53.6,53,30.02,10.0,SSE,8.1,-,N/A,,Clear,150,2013-07-03 05:35:00
11:55 PM,71.6,53.6,53,30.02,10.0,SSE,6.9,-,N/A,,Clear,150,2013-07-03 05:55:00